Location: Lombard
(41.8800°N, 88.0080°W)
Time: 21:43:31
(UTC-06:00)

Tiangong - Visible Passes

Search period start: 05 December 2021 00:00
Search period end: 15 December 2021 00:00
Orbit: 380 x 384 km, 41.5° (Epoch: 05 December)

Date Brightness Start Highest point End Pass type
(mag) Time Alt. Az. Time Alt. Az. Time Alt. Az.
06 Dec 3.7 18:00:55 10° S 18:01:35 11° SSE 18:01:35 11° SSE visible
07 Dec 3.6 18:35:13 10° SW 18:36:17 18° SSW 18:36:17 18° SSW visible
08 Dec 3.0 17:35:20 10° SSW 17:37:39 19° SSE 17:38:44 16° SE visible
09 Dec 1.9 18:10:35 10° SW 18:13:17 42° S 18:13:17 42° S visible
10 Dec 2.5 17:10:20 10° SW 17:13:08 29° SSE 17:15:37 12° E visible
10 Dec 3.7 18:46:32 10° WSW 18:47:46 21° WSW 18:47:46 21° WSW visible
11 Dec 1.3 17:45:59 10° WSW 17:49:06 61° SSE 17:50:02 39° ESE visible
12 Dec 2.0 18:22:03 10° W 18:24:26 48° W 18:24:26 48° W visible
13 Dec 1.1 17:21:24 10° WSW 17:24:33 77° S 17:26:41 19° E visible
13 Dec 4.2 18:58:09 10° W 18:58:50 15° W 18:58:50 15° W visible
14 Dec 1.0 17:57:27 10° W 18:00:37 84° S 18:01:04 62° ESE visible
